SL-16 DEB, 22296

Orbit data source: Space-Track

SL-16 DEB, 22296 is space debris in LEO originally from a launch on Fri, 25 Dec 1992 UTC launched from the Tyuratam Missile And Space Complex (TTMTR). Debris objects in space refer to the collection of defunct objects orbiting the Earth. Examples of debris include non-operational satellites, rocket bodies, and fragments generated from explosions, collisions, or faulty payload assembly.

Loading next visibility...
Identifier
22296, 1992-093L
Orbit
LEO
Country
Flag of CISCIS
Related business
Manufacturer
Unknown
Mission
Spacecraft
Bus & Motor
Unknown
Mass
Unknown
Launch date (UTC)
1992-12-25 (33 years ago)
Launch vehicle
Unknown
Launch site
Tyuratam Missile And Space Complex (TTMTR)
Object type
Payload
Rocket body
Debris
Shape & HBR
Unknown shape, 0.1 m
Radar Cross Section
Small (<0.1 m²)

Expand to show TLE details & history
Last TLE update: 21 hours ago

TLE from 21 hours ago
0 SL-16 DEB
1 22296U 92093L   25349.92975339  .00023256  00000-0  26235-2 0  9992
2 22296  70.8275 306.5731 0038720 276.4029 146.2413 14.85971383710555
Epoch: 2025-12-15T22:18Z
TLE epoch observation values (Epoch: 2025-12-15T22:18:50.692Z)
Latitude
57.3347°
Longitude
-80.31764°
Altitude
642.152 km
Speed
7.531 km/s
True Right ascension
22h 36m 51s
True Declination
57° 10' 32"
Sunlit
Object was in daylight at epoch
Visualization orbit readout
Latitude
Unknown
Longitude
Unknown
Altitude
Unknown
Speed
Unknown
Apparent Right ascension
Unknown
Apparent Declination
Unknown
Sunlit
N/A
Visualization observer readout
Local Sidereal Time
18:29:53
Azimuth
Unknown
Elevation
Unknown
Doppler factor
Unknown
Orbital elements
Apogee altitude
635.464 km
Perigee altitude
581.36 km
Semi-major axis
6,986.549 km
Eccentricity
0.00387
Inclination
70.8275°
RAAN
306.5731°
Arg. of periapsis
276.4029°
True anomaly
146.48687°
Mean anomaly
146.2413°
Eccentric anomaly
146.36418°
Mean motion
3.71663 °/min
Orbital period
96.86 mins
BSTAR
0.0026235
Loading maneuver chart data...
Computing Atmospheric mass density...
Loading historical data...
Loading historical data...
Loading historical data...
Loading historical data...
Loading historical data...
Loading historical data...
Loading historical data...

Documentation

Showing up to 5 results
|